GW4712 Weather Reports


Display with metric or nautical units.
time (UTC)temp
F
wind
direction
speed
MPH
gust
MPH
rain 1hr
in
rain 24hr
in
rain mn
in
humidity
%
barometer
mb
20260506205853 56 307 0.0 0.0 0.00 0.66 0.66 89 1012.1
20260506205349 56 307 0.0 0.0 0.00 0.66 0.66 88 1012.1
20260506204846 56 313 3.0 3.0 0.00 0.66 0.66 89 1011.9
20260506204344 56 290 1.0 2.0 0.00 0.66 0.66 89 1012.1
20260506203841 56 306 0.0 1.0 0.00 0.66 0.66 88 1011.7
20260506203338 56 307 1.0 1.0 0.00 0.66 0.66 88 1011.9
20260506202835 56 286 0.0 1.0 0.00 0.66 0.66 88 1011.7
20260506202332 57 257 2.0 2.0 0.00 0.66 0.66 88 1011.7
20260506201828 56 298 1.0 2.0 0.00 0.66 0.66 89 1011.9
20260506201326 56 288 2.0 2.0 0.00 0.66 0.66 90 1011.6
20260506200822 56 253 1.0 3.0 0.00 0.66 0.66 91 1011.7
20260506200318 56 322 2.0 2.0 0.00 0.66 0.66 91 1011.6
20260506195815 56 285 1.0 3.0 0.00 0.66 0.66 92 1011.7
20260506195312 55 313 3.0 4.0 0.00 0.66 0.66 91 1011.7
20260506194809 56 308 2.0 3.0 0.00 0.66 0.66 91 1011.6
20260506194305 56 287 3.0 4.0 0.00 0.66 0.66 91 1011.8
20260506193803 56 323 2.0 4.0 0.00 0.66 0.66 91 1011.6
20260506193300 56 311 4.0 7.0 0.00 0.66 0.66 91 1011.6
20260506192756 55 304 2.0 4.0 0.00 0.66 0.66 92 1011.4
20260506192253 55 308 2.0 6.0 0.00 0.66 0.66 91 1011.6
20260506191750 55 312 1.0 4.0 0.00 0.66 0.66 92 1011.5
20260506191246 55 307 3.0 4.0 0.00 0.66 0.66 92 1011.5
20260506190743 55 311 5.0 6.0 0.00 0.66 0.66 92 1011.5
20260506190240 56 309 4.0 7.0 0.00 0.66 0.66 92 1011.4
20260506185737 56 277 3.0 6.0 0.00 0.66 0.66 91 1011.4
20260506185233 56 309 2.0 4.0 0.00 0.66 0.66 93 1011.7
20260506184731 56 316 4.0 6.0 0.00 0.66 0.66 93 1011.8
20260506184228 55 318 5.0 7.0 0.00 0.66 0.66 94 1011.7
20260506183725 55 313 4.0 8.0 0.00 0.66 0.66 93 1011.6
20260506183220 55 312 3.0 3.0 0.00 0.66 0.66 92 1011.3
20260506182718 55 312 6.0 9.0 0.00 0.66 0.66 93 1011.3
20260506182214 55 309 4.0 7.0 0.00 0.66 0.66 93 1011.2
20260506181712 55 314 4.0 6.0 0.00 0.66 0.66 93 1011.3
20260506181204 56 297 6.0 10.0 0.00 0.66 0.66 93 1011.4
20260506180702 56 312 6.0 8.0 0.00 0.66 0.66 93 1011.4
20260506180157 56 307 5.0 8.0 0.00 0.66 0.66 93 1011.2
20260506175654 56 309 4.0 6.0 0.00 0.66 0.66 94 1011.2
20260506175150 56 311 6.0 7.0 0.00 0.66 0.66 94 1011.4
20260506174648 56 307 4.0 8.0 0.00 0.66 0.66 94 1011.2
20260506174145 56 311 8.0 8.0 0.00 0.66 0.66 94 1011.3
20260506173643 56 277 6.0 8.0 0.00 0.66 0.66 95 1011.1
20260506173140 56 313 7.0 10.0 0.00 0.66 0.66 95 1010.8
20260506172637 56 307 4.0 6.0 0.00 0.66 0.66 96 1011.1
20260506172133 56 312 6.0 8.0 0.00 0.66 0.66 95 1011.1
20260506171630 56 311 4.0 9.0 0.00 0.66 0.66 96 1011.4
20260506171128 56 318 1.0 3.0 0.00 0.66 0.66 96 1011.1
20260506170626 56 317 7.0 8.0 0.00 0.66 0.66 96 1011.2
20260506170122 56 320 3.0 8.0 0.00 0.66 0.66 95 1011.3
20260506165621 56 317 5.0 6.0 0.00 0.66 0.66 96 1011.2
20260506165116 56 314 7.0 9.0 0.00 0.66 0.66 96 1011.1
20260506164614 56 316 3.0 7.0 0.00 0.66 0.66 96 1010.9
20260506164112 56 281 3.0 8.0 0.00 0.66 0.66 97 1011.2
20260506163607 56 309 6.0 8.0 0.00 0.66 0.66 97 1011.3
20260506163103 56 311 5.0 6.0 0.00 0.66 0.66 97 1011.2
20260506162559 56 307 6.0 8.0 0.00 0.66 0.66 97 1010.8
20260506162051 56 302 5.0 7.0 0.00 0.66 0.66 97 1011.1
20260506161549 56 309 6.0 10.0 0.00 0.66 0.66 96 1010.8
20260506161045 56 309 6.0 7.0 0.00 0.66 0.66 97 1011.1
20260506160543 56 307 5.0 8.0 0.00 0.66 0.66 96 1010.7
20260506160039 57 283 6.0 11.0 0.00 0.66 0.66 96 1010.7
20260506155538 57 325 6.0 8.0 0.00 0.66 0.66 96 1010.5
20260506153715 59 314 6.0 11.0 0.07 0.66 0.66 98 1009.8
20260506153212 60 315 5.0 6.0 0.07 0.66 0.66 98 1009.7
20260506152709 60 311 2.0 2.0 0.00 0.65 0.65 98 1009.6
20260506152206 60 298 0.0 1.0 0.00 0.65 0.65 98 1009.4
20260506151706 60 294 1.0 2.0 0.00 0.65 0.65 98 1009.4
20260506151201 60 299 1.0 1.0 0.05 0.65 0.65 98 1009.5
20260506150658 60 303 0.0 2.0 0.05 0.65 0.65 98 1009.6
20260506150155 60 297 1.0 2.0 0.00 0.64 0.64 98 1009.2
20260506145652 60 291 0.0 2.0 0.00 0.64 0.64 98 1009.3
20260506145149 60 277 1.0 2.0 0.00 0.64 0.64 97 1009.1
20260506144647 60 315 2.0 3.0 0.00 0.64 0.64 97 1009.3
20260506144143 60 219 0.0 2.0 0.00 0.64 0.64 97 1009.2
20260506143641 60 308 5.0 7.0 0.00 0.64 0.64 97 1009.3
20260506143139 60 311 0.0 4.0 0.00 0.64 0.64 97 1009.0
20260506142637 60 160 2.0 4.0 0.00 0.64 0.64 97 1008.8
20260506142135 60 243 2.0 8.0 0.00 0.64 0.64 97 1008.8
20260506141632 59 258 3.0 10.0 0.00 0.64 0.64 96 1008.8
20260506141130 60 253 1.0 7.0 0.00 0.64 0.64 96 1008.8
20260506140627 60 309 3.0 7.0 0.00 0.64 0.64 96 1008.6
20260506140124 60 252 3.0 6.0 0.00 0.64 0.64 96 1008.3
20260506135621 60 244 4.0 4.0 0.00 0.64 0.64 97 1008.2
20260506135118 60 235 1.0 2.0 0.00 0.64 0.64 97 1008.2
20260506134614 59 213 2.0 6.0 0.00 0.64 0.64 97 1008.0
20260506134110 59 281 2.0 3.0 0.00 0.64 0.64 97 1008.1
20260506133608 59 318 3.0 7.0 0.00 0.64 0.64 96 1008.4
20260506133104 60 257 3.0 4.0 0.00 0.64 0.64 96 1008.5
20260506132602 60 251 3.0 4.0 0.00 0.64 0.64 95 1008.3
20260506132058 60 180 1.0 9.0 0.00 0.64 0.64 95 1008.4
20260506131556 59 240 1.0 2.0 0.00 0.64 0.64 96 1008.3
20260506131052 59 265 1.0 3.0 0.00 0.64 0.64 96 1008.5
20260506130549 59 253 2.0 6.0 0.00 0.64 0.64 96 1008.5
20260506130047 59 293 1.0 2.0 0.00 0.64 0.64 97 1008.4
20260506125545 59 278 1.0 3.0 0.00 0.64 0.64 97 1008.3
20260506125042 58 259 3.0 3.0 0.00 0.64 0.64 98 1008.2
20260506124540 58 190 1.0 2.0 0.00 0.64 0.64 98 1008.1
20260506124037 58 245 0.0 1.0 0.00 0.64 0.64 98 1008.1
20260506123535 58 312 2.0 3.0 0.00 0.64 0.64 98 1008.0
20260506123034 58 325 1.0 1.0 0.00 0.64 0.64 99 1008.0
20260506122530 58 52 1.0 1.0 0.00 0.64 0.64 99 1007.9
20260506122028 58 212 0.0 2.0 0.00 0.64 0.64 99 1007.9
20260506121525 58 127 1.0 2.0 0.00 0.64 0.64 99 1007.8
20260506121021 57 146 0.0 0.0 0.07 0.64 0.64 99 1008.1
20260506120520 57 47 0.0 3.0 0.07 0.64 0.64 99 1008.0
20260506120016 57 260 0.0 4.0 0.00 0.63 0.63 99 1008.1
20260506115514 57 108 1.0 2.0 0.00 0.63 0.63 99 1007.9
20260506115012 57 74 0.0 0.0 0.07 0.63 0.63 99 1007.9
20260506114509 57 74 0.0 0.0 0.07 0.63 0.63 99 1008.2
20260506114008 57 74 0.0 0.0 0.00 0.62 0.62 99 1008.1
20260506113505 57 29 0.0 0.0 0.00 0.62 0.62 99 1008.0
20260506113002 57 26 0.0 0.0 0.05 0.62 0.62 99 1008.0
20260506112459 57 23 0.0 0.0 0.12 0.62 0.62 99 1007.8
20260506111956 57 23 0.0 0.0 0.07 0.61 0.61 99 1007.8
20260506111454 57 23 0.0 0.0 0.05 0.60 0.60 99 1007.9
20260506110951 57 23 0.0 0.0 0.05 0.60 0.60 99 1008.0
20260506110449 57 23 0.0 0.0 0.07 0.59 0.59 99 1007.7
20260506105945 57 23 0.0 0.0 0.12 0.59 0.59 99 1007.9
20260506105441 57 23 0.0 0.0 0.05 0.58 0.58 99 1007.8
20260506104939 57 22 0.0 0.0 0.07 0.57 0.57 99 1007.8
20260506104437 57 23 0.0 0.0 0.19 0.57 0.57 99 1007.6
20260506103935 57 22 0.0 0.0 0.17 0.56 0.56 99 1007.7
20260506103432 57 22 0.0 0.0 0.17 0.54 0.54 99 1007.6
20260506102929 57 28 0.0 0.0 0.12 0.53 0.53 99 1007.5
20260506102427 57 27 0.0 0.0 0.07 0.51 0.51 99 1007.6
20260506101924 57 27 0.0 0.0 0.14 0.51 0.51 99 1007.5
20260506101419 57 27 0.0 1.0 0.12 0.49 0.49 99 1007.5
20260506100917 57 27 2.0 2.0 0.12 0.49 0.49 99 1007.7
20260506100416 57 27 0.0 1.0 0.05 0.47 0.47 99 1007.4
20260506095913 57 26 0.0 1.0 0.17 0.47 0.47 99 1007.6
20260506095411 57 79 1.0 1.0 0.24 0.46 0.46 99 1007.5
20260506094907 57 33 0.0 2.0 0.19 0.44 0.44 99 1007.6
20260506094406 57 41 0.0 0.0 0.07 0.42 0.42 99 1007.7
20260506093903 57 50 0.0 1.0 0.05 0.41 0.41 99 1007.7
20260506093401 57 59 1.0 1.0 0.05 0.41 0.41 99 1007.4
20260506092858 57 67 0.0 1.0 0.07 0.40 0.40 99 1007.7
20260506092356 57 113 0.0 0.0 0.12 0.40 0.40 99 1007.8
20260506091852 57 97 0.0 0.0 0.12 0.39 0.39 99 1008.1
20260506091351 57 218 0.0 0.0 0.19 0.38 0.38 99 1008.3
20260506090848 57 252 0.0 0.0 0.24 0.37 0.37 99 1008.3
20260506090345 57 252 0.0 0.0 0.31 0.35 0.35 99 1008.4
20260506085837 57 252 0.0 0.0 0.35 0.33 0.33 99 1008.3
20260506085333 57 252 0.0 1.0 0.24 0.30 0.30 99 1008.2
20260506084830 57 263 0.0 0.0 0.31 0.27 0.27 99 1008.5
20260506084327 57 246 0.0 1.0 0.71 0.26 0.26 99 1008.5
20260506083823 57 256 0.0 0.0 0.90 0.22 0.22 99 1008.5
20260506083321 57 301 0.0 0.0 0.59 0.13 0.13 99 1008.7
20260506082818 57 298 1.0 2.0 0.17 0.06 0.06 99 1008.9
20260506082314 57 319 4.0 4.0 0.00 0.03 0.03 99 1008.6
20260506081811 57 325 0.0 0.0 0.07 0.03 0.03 99 1008.2
20260506081309 57 325 0.0 0.0 0.07 0.03 0.03 99 1007.9
20260506080806 57 325 0.0 0.0 0.00 0.02 0.02 98 1008.0
20260506080302 57 325 0.0 0.0 0.00 0.02 0.02 98 1007.8
20260506073246 57 325 0.0 0.0 0.00 0.01 0.01 98 1007.6
20260506072743 57 325 0.0 0.0 0.07 0.01 0.01 98 1007.6
20260506072241 57 325 0.0 2.0 0.00 0.00 0.00 98 1007.9
20260506071738 57 325 0.0 0.0 0.00 0.00 0.00 98 1007.8
20260506071236 57 325 0.0 0.0 0.00 0.00 0.00 98 1007.9
20260506070733 57 325 0.0 1.0 0.00 0.00 0.00 98 1007.9
20260506070230 57 325 0.0 0.0 0.00 0.00 0.00 98 1007.8
20260506062207 57 325 0.0 0.0 0.00 0.00 0.00 97 1007.9
20260506061702 57 325 0.0 0.0 0.00 0.00 0.00 97 1007.8
20260506061159 57 325 0.0 0.0 0.00 0.00 0.00 97 1008.0
20260506060659 57 325 0.0 0.0 0.00 0.00 0.00 97 1008.1
20260506060155 58 325 0.0 0.0 0.00 0.00 0.00 97 1008.3
20260506051126 58 325 0.0 0.0 0.00 0.00 0.00 95 1008.7
20260506050625 58 325 0.0 0.0 0.00 0.00 0.00 94 1008.8
20260506050122 58 325 0.0 0.0 0.00 0.00 0.00 94 1009.1
20260506045115 58 325 0.0 0.0 0.00 0.00 0.00 92 1009.0
20260506044613 58 325 0.0 0.0 0.00 0.00 0.00 92 1008.8
20260506044109 58 325 0.0 0.0 0.00 0.00 0.00 92 1009.0
20260506043607 58 325 0.0 0.0 0.00 0.00 0.00 91 1009.4
20260506043105 58 325 0.0 0.0 0.00 0.00 0.00 91 1009.0
20260506042604 59 325 0.0 0.0 0.00 0.00 0.00 90 1009.2
20260506042101 59 325 0.0 0.0 0.00 0.00 0.00 89 1009.1
20260506041600 59 325 0.0 0.0 0.00 0.00 0.00 88 1009.4
20260506041056 59 325 0.0 0.0 0.00 0.00 0.00 87 1009.4
20260506040554 60 325 0.0 0.0 0.00 0.00 0.00 86 1009.5
20260506040050 60 325 0.0 0.0 0.00 0.00 0.00 85 1009.6
20260506035548 60 325 0.0 0.0 0.00 0.00 0.00 85 1009.5
20260506035044 60 325 0.0 0.0 0.00 0.00 0.00 84 1009.6
20260506034541 60 325 0.0 1.0 0.00 0.00 0.00 82 1009.2
20260506034038 60 325 0.0 0.0 0.00 0.00 0.00 82 1009.1
20260506033535 61 325 0.0 0.0 0.00 0.00 0.00 82 1009.1
20260506033032 61 325 0.0 0.0 0.00 0.00 0.00 80 1008.7
20260506032530 60 324 0.0 0.0 0.00 0.00 0.00 81 1009.2
20260506032026 61 325 0.0 0.0 0.00 0.00 0.00 82 1008.9
20260506031524 61 325 0.0 0.0 0.00 0.00 0.00 81 1009.1
20260506031021 60 324 0.0 1.0 0.00 0.00 0.00 83 1009.2
20260506030519 61 324 1.0 1.0 0.00 0.00 0.00 84 1009.5
20260506030016 61 324 1.0 1.0 0.00 0.00 0.00 79 1009.2
20260506025513 61 325 0.0 0.0 0.00 0.00 0.00 78 1009.1
20260506025009 62 325 0.0 0.0 0.00 0.00 0.00 79 1009.1
20260506024507 62 325 0.0 0.0 0.00 0.00 0.00 80 1009.0
20260506024002 62 325 0.0 1.0 0.00 0.00 0.00 78 1009.1
20260506023459 62 314 0.0 2.0 0.00 0.00 0.00 76 1009.0
20260506022955 62 311 2.0 2.0 0.00 0.00 0.00 77 1008.9
20260506022453 62 170 0.0 0.0 0.00 0.00 0.00 73 1008.9
20260506021950 62 169 0.0 0.0 0.00 0.00 0.00 74 1008.8
20260506021448 63 169 0.0 0.0 0.00 0.00 0.00 76 1008.9
20260506020945 63 169 0.0 0.0 0.00 0.00 0.00 77 1009.2
20260506020443 63 169 0.0 0.0 0.00 0.00 0.00 73 1009.6
20260506015939 63 169 0.0 0.0 0.00 0.00 0.00 72 1009.4
20260506015437 64 170 0.0 0.0 0.00 0.00 0.00 72 1009.4
20260506014934 64 170 0.0 0.0 0.00 0.00 0.00 68 1009.1
20260506014431 64 169 0.0 0.0 0.00 0.00 0.00 65 1009.1
20260506013927 65 144 0.0 0.0 0.00 0.00 0.00 66 1009.1
20260506013425 66 277 0.0 1.0 0.00 0.00 0.00 64 1009.0
20260506012921 67 277 0.0 0.0 0.00 0.00 0.00 57 1009.2
20260506012418 69 278 0.0 1.0 0.00 0.00 0.00 52 1009.4
20260506011915 71 277 1.0 2.0 0.00 0.00 0.00 48 1009.5
20260506011412 71 243 4.0 7.0 0.00 0.00 0.00 45 1009.6
20260506010909 71 319 2.0 7.0 0.00 0.00 0.00 46 1009.6
20260506010407 71 191 2.0 9.0 0.00 0.00 0.00 47 1009.6
20260506005903 71 291 4.0 6.0 0.00 0.00 0.00 48 1009.7
20260506005401 71 258 4.0 8.0 0.00 0.00 0.00 47 1009.8
20260506004856 70 299 4.0 10.0 0.00 0.00 0.00 49 1009.7
20260506004355 64 305 1.0 1.0 0.00 0.00 0.00 75 1009.8
20260506003850 64 220 0.0 0.0 0.00 0.00 0.00 73 1009.7
20260506003346 64 221 0.0 0.0 0.00 0.00 0.00 72 1009.5
20260506002843 65 220 0.0 0.0 0.00 0.00 0.00 71 1009.6
20260506002340 65 220 0.0 0.0 0.00 0.00 0.00 72 1009.4
20260506001835 65 220 0.0 0.0 0.00 0.00 0.00 71 1009.3
20260506001332 65 220 0.0 0.0 0.00 0.00 0.00 69 1009.3
20260506000829 66 220 0.0 0.0 0.00 0.00 0.00 67 1009.4
20260506000329 66 220 0.0 1.0 0.00 0.00 0.00 68 1009.4
20260505235824 67 220 0.0 0.0 0.00 0.00 0.00 66 1009.4
20260505235321 67 221 0.0 0.0 0.00 0.00 0.00 65 1009.4
20260505234818 67 221 0.0 0.0 0.00 0.00 0.00 65 1009.4
20260505234316 68 222 0.0 0.0 0.00 0.00 0.00 63 1009.3
20260505233813 68 222 0.0 2.0 0.00 0.00 0.00 62 1009.3
20260505233310 69 309 0.0 0.0 0.00 0.00 0.00 60 1009.4
20260505232807 70 310 0.0 1.0 0.00 0.00 0.00 56 1009.3
20260505232305 71 311 0.0 0.0 0.00 0.00 0.00 54 1009.2
20260505231801 72 311 0.0 0.0 0.00 0.00 0.00 52 1009.0
20260505231300 73 307 2.0 2.0 0.00 0.00 0.00 43 1009.2
20260505230758 73 217 0.0 2.0 0.00 0.00 0.00 43 1009.1
20260505230254 73 311 2.0 3.0 0.00 0.00 0.00 43 1009.4
20260505225751 73 312 2.0 4.0 0.00 0.00 0.00 42 1009.5
20260505225249 73 310 3.0 7.0 0.00 0.00 0.00 41 1009.5
20260505224743 74 308 4.0 8.0 0.00 0.00 0.00 43 1009.5
20260505224241 74 317 1.0 3.0 0.00 0.00 0.00 43 1009.4
20260505223738 74 311 2.0 6.0 0.00 0.00 0.00 41 1009.4
20260505223234 74 211 4.0 6.0 0.00 0.00 0.00 43 1009.3
20260505222730 74 310 4.0 6.0 0.00 0.00 0.00 43 1009.5
20260505222227 74 231 3.0 3.0 0.00 0.00 0.00 42 1009.5
20260505221724 74 303 4.0 7.0 0.00 0.00 0.00 41 1009.5
20260505221221 75 324 3.0 8.0 0.00 0.00 0.00 42 1009.5
20260505220718 75 182 4.0 4.0 0.00 0.00 0.00 41 1009.4
20260505220216 76 305 6.0 7.0 0.00 0.00 0.00 40 1009.5
20260505215713 75 246 5.0 7.0 0.00 0.00 0.00 40 1009.9
20260505215211 75 190 3.0 6.0 0.00 0.00 0.00 40 1009.8
20260505214708 74 312 4.0 10.0 0.00 0.00 0.00 43 1009.8
20260505214206 75 259 2.0 4.0 0.00 0.00 0.00 42 1009.8
20260505213703 74 179 2.0 8.0 0.00 0.00 0.00 41 1009.9
20260505213200 74 340 4.0 13.0 0.00 0.00 0.00 41 1010.0
20260505212655 74 249 7.0 9.0 0.00 0.00 0.00 41 1010.2
20260505212153 75 262 6.0 7.0 0.00 0.00 0.00 40 1010.1
20260505211650 75 248 7.0 10.0 0.00 0.00 0.00 40 1010.4
20260505211147 74 253 5.0 8.0 0.00 0.00 0.00 42 1010.3
20260505210644 74 261 5.0 11.0 0.00 0.00 0.00 43 1010.1